| time (UTC) | temp F | wind direction | speed knots | gust knots | rain 1hr in | rain 24hr in | rain mn in | humidity % | barometer mb |
| 20260906092500 | 51 | 349 | 14.8 | 22.6 | 0.00 | 0.04 | 0.00 | 63 | 1010.2 |
| 20260906090458 | 51 | 348 | 13.9 | 20.9 | 0.00 | 0.04 | 0.00 | 64 | 1010.1 |
| 20260906082459 | 50 | 353 | 14.8 | 22.6 | 0.00 | 0.04 | 0.00 | 62 | 1009.7 |
| 20260906074459 | 51 | 342 | 13.9 | 21.7 | 0.00 | 0.05 | 0.00 | 63 | 1009.4 |
| 20260906072129 | 50 | 344 | 12.2 | 22.6 | 0.00 | 0.05 | 0.00 | 67 | 1009.2 |
| 20260906070128 | 49 | 347 | 12.2 | 19.1 | 0.00 | 0.05 | 0.00 | 69 | 1008.8 |
| 20260906064457 | 49 | 345 | 12.2 | 20.0 | 0.00 | 0.05 | 0.00 | 68 | 1008.7 |
| 20260906062458 | 49 | 337 | 13.0 | 18.2 | 0.00 | 0.05 | 0.00 | 70 | 1008.3 |
| 20260906060455 | 49 | 340 | 13.0 | 19.1 | 0.00 | 0.05 | 0.00 | 69 | 1008.2 |
| 20260906054129 | 49 | 350 | 9.6 | 16.5 | 0.00 | 0.06 | 0.00 | 70 | 1007.8 |
| 20260906052459 | 49 | 347 | 9.6 | 17.4 | 0.00 | 0.06 | 0.00 | 71 | 1007.6 |
| 20260906050459 | 49 | 342 | 9.6 | 15.6 | 0.00 | 0.06 | 0.00 | 74 | 1007.4 |
| 20260906044129 | 48 | 342 | 10.4 | 14.8 | 0.00 | 0.08 | 0.00 | 76 | 1007.2 |
| 20260906042128 | 49 | 340 | 9.6 | 14.8 | 0.00 | 0.08 | 0.00 | 77 | 1006.9 |
| 20260906034128 | 49 | 341 | 9.6 | 13.9 | 0.00 | 0.08 | 0.00 | 75 | 1006.4 |
| 20260906030459 | 47 | 340 | 7.8 | 11.3 | 0.00 | 0.08 | 0.00 | 78 | 1006.2 |
| 20260906024458 | 47 | 335 | 9.6 | 12.2 | 0.00 | 0.08 | 0.00 | 76 | 1006.0 |
| 20260906022459 | 48 | 333 | 10.4 | 13.0 | 0.00 | 0.08 | 0.00 | 73 | 1005.8 |
| 20260906012128 | 49 | 341 | 10.4 | 14.8 | 0.00 | 0.08 | 0.00 | 75 | 1005.3 |
| 20260906010459 | 49 | 340 | 11.3 | 16.5 | 0.00 | 0.08 | 0.00 | 75 | 1005.1 |
| 20260906004459 | 49 | 336 | 10.4 | 14.8 | 0.00 | 0.09 | 0.00 | 74 | 1004.9 |
| 20260906002458 | 49 | 337 | 9.6 | 13.0 | 0.00 | 0.09 | 0.00 | 76 | 1004.8 |
| 20260906000456 | 50 | 334 | 10.4 | 13.0 | 0.00 | 0.09 | 0.00 | 79 | 1004.5 |
| 20260905234457 | 50 | 337 | 8.7 | 12.2 | 0.00 | 0.09 | 0.00 | 81 | 1004.4 |
| 20260905232456 | 50 | 332 | 7.0 | 9.6 | 0.00 | 0.09 | 0.00 | 82 | 1004.4 |
| 20260905230457 | 49 | 338 | 7.8 | 9.6 | 0.00 | 0.09 | 0.00 | 82 | 1004.2 |
| 20260905224456 | 49 | 343 | 7.8 | 9.6 | 0.00 | 0.09 | 0.00 | 86 | 1004.1 |
| 20260905222457 | 45 | 333 | 7.8 | 10.4 | 0.00 | 0.09 | 0.00 | 98 | 1004.0 |
| 20260905220458 | 45 | 344 | 6.1 | 7.8 | 0.00 | 0.09 | 0.00 | 97 | 1003.9 |
| 20260905214457 | 46 | 346 | 3.5 | 6.1 | 0.00 | 0.09 | 0.00 | 95 | 1003.8 |
| 20260905212127 | 47 | 344 | 5.2 | 7.8 | 0.00 | 0.09 | 0.00 | 92 | 1003.6 |
| 20260905210126 | 48 | 355 | 6.1 | 8.7 | 0.00 | 0.09 | 0.00 | 88 | 1003.6 |
| 20260905204456 | 50 | 340 | 7.8 | 13.0 | 0.00 | 0.09 | 0.09 | 85 | 1003.4 |
| 20260905202457 | 50 | 349 | 7.8 | 9.6 | 0.00 | 0.09 | 0.09 | 83 | 1003.1 |
| 20260905200458 | 50 | 353 | 7.8 | 11.3 | 0.00 | 0.09 | 0.09 | 84 | 1003.0 |
| 20260905194454 | 51 | 353 | 7.8 | 12.2 | 0.00 | 0.09 | 0.09 | 83 | 1002.7 |
| 20260905190455 | 51 | 345 | 7.8 | 12.2 | 0.00 | 0.09 | 0.09 | 82 | 1002.8 |
| 20260905184457 | 50 | 355 | 8.7 | 16.5 | 0.00 | 0.09 | 0.09 | 83 | 1002.6 |
| 20260905182456 | 50 | 357 | 7.8 | 13.0 | 0.00 | 0.09 | 0.09 | 82 | 1002.4 |
| 20260905180454 | 51 | 14 | 8.7 | 13.9 | 0.00 | 0.09 | 0.09 | 81 | 1002.2 |
| 20260905174453 | 51 | 17 | 8.7 | 15.6 | 0.00 | 0.09 | 0.09 | 82 | 1001.9 |
| 20260905172454 | 51 | 17 | 7.8 | 13.0 | 0.00 | 0.09 | 0.09 | 81 | 1001.8 |
| 20260905164457 | 52 | 6 | 9.6 | 14.8 | 0.00 | 0.09 | 0.09 | 77 | 1001.4 |
| 20260905162127 | 52 | 12 | 9.6 | 14.8 | 0.00 | 0.09 | 0.09 | 77 | 1001.2 |
| 20260905160455 | 53 | 18 | 12.2 | 20.9 | 0.00 | 0.09 | 0.09 | 74 | 1000.9 |
| 20260905154454 | 54 | 5 | 12.2 | 22.6 | 0.00 | 0.09 | 0.09 | 71 | 1000.8 |
| 20260905152456 | 54 | 13 | 13.0 | 22.6 | 0.00 | 0.09 | 0.09 | 75 | 1000.8 |
| 20260905150125 | 53 | 8 | 11.3 | 21.7 | 0.01 | 0.09 | 0.09 | 78 | 1000.5 |
| 20260905144455 | 53 | 10 | 11.3 | 19.1 | 0.01 | 0.09 | 0.09 | 80 | 1000.5 |
| 20260905140126 | 53 | 11 | 8.7 | 13.0 | 0.00 | 0.08 | 0.08 | 91 | 999.9 |
| 20260905130128 | 56 | 21 | 9.6 | 18.2 | 0.01 | 0.08 | 0.07 | 83 | 999.4 |
| 20260905124454 | 54 | 5 | 13.9 | 22.6 | 0.01 | 0.08 | 0.07 | 83 | 999.2 |
| 20260905122454 | 54 | 8 | 11.3 | 20.0 | 0.01 | 0.08 | 0.07 | 85 | 999.1 |
| 20260905120455 | 56 | 14 | 9.6 | 18.2 | 0.01 | 0.08 | 0.07 | 82 | 998.8 |
| 20260905114455 | 54 | 14 | 12.2 | 17.4 | 0.01 | 0.07 | 0.07 | 92 | 998.7 |
| 20260905112456 | 54 | 10 | 12.2 | 19.1 | 0.01 | 0.07 | 0.07 | 85 | 998.6 |
| 20260905110454 | 54 | 356 | 12.2 | 20.9 | 0.01 | 0.07 | 0.06 | 87 | 998.1 |
| 20260905104456 | 54 | 359 | 12.2 | 22.6 | 0.01 | 0.07 | 0.06 | 86 | 998.0 |
| 20260905102455 | 55 | 8 | 12.2 | 20.0 | 0.01 | 0.07 | 0.06 | 88 | 997.7 |
| 20260905100454 | 53 | 8 | 12.2 | 21.7 | 0.01 | 0.07 | 0.06 | 95 | 997.5 |
| 20260905094454 | 53 | 356 | 13.0 | 24.3 | 0.00 | 0.06 | 0.05 | 94 | 997.3 |